Home   Weather   Playa del Carmen   Past weeks

Flag for Mexico Past Weather in Playa del Carmen, Quintana Roo, Mexico — Yesterday and Last 2 Weeks

Now
63 °F

Clear.


Feels Like: 63 °F
Forecast: 73 / 85 °F
Wind: No wind

Location: Cozumel Civ / Mil

Current Time: Feb 25, 2017 at 6:25:56 am

Latest Report: Feb 25, 2017 at 5:40 am


Visibility: 7 mi

Pressure: 29.84 "Hg

Humidity: 100%

Dew Point: 63 °F

Location of Playa del CarmenLocation

Past Weather in Playa del Carmen — Graph

°F

Playa del Carmen Temperature Yesterday

Maximum temperature yesterday: 84 °F (at 11:44 am)
Minimum temperature yesterday: 64 °F (at 6:48 am)
Average temperature yesterday: 74 °F

High & Low Weather Summary for the Past Weeks

 TemperatureHumidityPressure
High88 °F (Feb 15, 1:46 pm)100% (Feb 10, 6:45 am)30.24 "Hg (Feb 10, 6:45 am)
Low59 °F (Feb 14, 7:42 am)35% (Feb 22, 2:44 pm)28.67 "Hg (Feb 18, 12:43 am)
Average76 °F76%29.96 "Hg
* Reported Feb 10 4:45 am — Feb 25 4:40 am, Playa del Carmen, Weather by CustomWeather, © 2017

Note: Actual official high and low records may vary slightly from our data, if they occured in-between our weather recording intervals... More about our weather records

Advertising

Playa del Carmen Weather History for the Previous 24 Hours

Scroll right to see more
 ConditionsComfort  
Time TempWeatherWind HumidityBarometerVisibility
4:40 am
Sat, Feb 25
64 °FClear.No wind94%29.83 "Hg7 mi
3:40 am66 °FClear.No wind94%29.83 "Hg7 mi
2:50 am66 °FClear.No wind94%29.82 "Hg7 mi
1:43 am68 °FClear.No wind88%29.83 "Hg7 mi
12:42 am68 °FClear.3 mph94%29.85 "Hg7 mi
11:40 pm
Fri, Feb 24
70 °FClear.No wind88%29.83 "Hg7 mi
10:40 pm70 °FClear.No wind88%29.83 "Hg7 mi
9:41 pm70 °FClear.5 mph88%29.84 "Hg7 mi
8:41 pm72 °FClear.5 mph83%29.81 "Hg7 mi
7:44 pm75 °FSunny.5 mph74%29.78 "Hg7 mi
6:42 pm79 °FSunny.6 mph65%29.79 "Hg7 mi
5:43 pm81 °FScattered clouds.7 mph62%29.77 "Hg8 mi
4:44 pm81 °FScattered clouds.9 mph62%29.77 "Hg8 mi
3:46 pm82 °FPartly sunny.9 mph58%29.79 "Hg8 mi
2:43 pm84 °FPartly sunny.9 mph55%29.79 "Hg10 mi
1:41 pm84 °FScattered clouds.8 mph55%29.81 "Hg10 mi
12:40 pm84 °FScattered clouds.10 mph51%29.86 "Hg10 mi
11:44 am84 °FPassing clouds.8 mph51%29.86 "Hg10 mi
10:42 am82 °FSunny.5 mph58%29.86 "Hg10 mi
9:48 am79 °FSunny.8 mph65%29.87 "Hg10 mi
8:41 am73 °FSunny.5 mph78%29.83 "Hg10 mi
7:46 am64 °FClear.No wind94%29.83 "Hg8 mi
6:48 am64 °FClear.No wind94%29.83 "Hg7 mi
Weather by CustomWeather, © 2017

See weather overviewHow to use our weather pages